Wind_Speed
10 10 10 9 9 9 9 8 4 2 3 4 4 15 18 16 17 17 17 16 17 16 16 18 18 18 17 17 17 18 16 18 16 16 16 19 19 13
13 12 12 10 9 9 9 9 10 9 3 3 13 18 17 16 15 14 15 14 15 15 15 16 17 18 17 16 16 17 18 17 17 15 18 18 19 19
15 14 14 12 11 10 10 10 10 12 7 14 16 18 16 16 17 14 11 13 16 16 12 11 15 16 15 13 14 18 19 17 15 16 18 18 17 18
18 17 17 14 14 13 12 12 11 11 12 12 17 16 16 13 14 11 11 14 18 17 10 9 14 16 13 12 12 14 17 18 15 15 17 17 17 17
21 20 19 17 17 15 14 13 12 11 12 11 13 15 16 13 16 14 12 17 17 17 6 8 16 14 14 11 12 13 14 15 13 12 15 16 16 17
23 22 21 20 19 17 15 15 14 13 13 13 16 16 13 14 14 13 17 18 20 18 7 10 18 13 10 11 12 13 14 13 13 11 15 16 17 18
25 24 22 22 21 19 18 17 15 13 13 14 15 14 16 13 10 10 16 21 22 7 14 20 21 14 11 13 12 11 12 14 10 11 14 15 18 17
28 26 24 23 21 20 18 17 16 16 16 16 14 13 15 14 11 12 15 10 3 5 22 25 18 15 12 9 12 11 10 8 7 12 13 16 18 16
29 27 24 24 22 22 21 18 18 18 17 17 16 17 18 16 15 14 15 14 12 18 19 17 20 14 13 21 16 10 5 1 8 14 16 17 16 16
29 26 25 25 23 22 21 20 20 20 20 18 20 19 17 15 14 14 15 16 17 17 15 6 11 14 25 17 6 6 3 4 14 18 16 13 17 18
31 27 24 25 24 21 20 20 19 20 19 17 17 17 15 14 14 18 17 13 8 13 12 4 6 20 19 8 6 2 10 15 21 16 14 19 20 18
30 27 24 24 25 22 22 21 20 21 19 17 17 17 16 17 17 12 11 12 8 4 3 4 7 7 8 9 6 13 23 24 15 18 20 18 16 19
26 28 28 24 24 22 21 22 23 20 18 18 19 17 16 16 15 11 11 10 9 12 11 10 5 10 7 9 15 22 25 18 26 26 17 19 16 11
27 28 25 23 21 22 20 19 16 15 18 16 16 17 16 17 10 10 10 11 12 16 16 14 11 13 15 16 13 20 22 27 25 21 24 11 13 17
26 27 20 19 18 19 18 16 16 18 16 16 16 18 17 12 10 10 10 11 14 16 15 16 18 18 19 17 18 22 20 20 26 23 12 20 23 23
25 21 19 17 18 19 17 16 17 20 18 19 19 17 13 11 9 9 12 14 18 21 18 14 13 15 21 23 20 22 22 13 20 26 26 27 26 24
20 20 21 20 20 19 18 18 20 19 19 19 17 16 14 11 11 12 14 16 14 17 19 18 19 17 19 24 23 24 26 24 24 27 23 23 25 25
19 15 17 19 18 17 19 18 22 19 18 17 15 14 13 13 13 15 16 14 14 15 21 25 24 21 14 17 21 25 23 22 25 25 23 19 24 25
17 17 17 18 18 19 21 20 20 18 16 16 16 13 12 13 13 14 13 15 15 20 22 24 23 15 7 8 18 18 24 27 23 24 24 22 22 31
18 17 18 18 19 21 21 20 19 17 16 16 16 14 13 13 14 14 14 14 17 21 22 22 21 21 12 9 10 28 22 26 25 25 27 24 27 28
18 20 22 21 23 23 22 20 18 18 17 17 16 13 13 14 15 16 16 16 17 15 17 19 22 19 23 22 10 23 31 25 26 29 28 19 20 21
22 23 22 23 24 23 20 19 18 17 16 17 16 13 14 14 16 16 15 15 16 18 21 25 26 24 21 17 17 23 27 28 26 24 29 31 24 7
24 26 24 25 25 22 19 18 18 19 17 18 16 14 14 15 15 16 19 19 18 19 20 22 22 21 23 23 24 24 27 28 27 23 30 29 29 35
Wind_Direction
263 258 255 255 250 256 251 251 217 289 290 276 306 332 338 341 348 350 354 359 2 2 360 3 7 11 14 23 20 17 14 21 26 30 30 28 21 11
263 255 255 259 251 250 246 248 246 239 255 275 300 317 326 329 333 334 349 349 360 359 356 2 5 6 7 10 13 15 14 22 24 18 26 19 17 10
256 255 254 255 253 248 244 242 244 243 243 277 292 309 313 320 323 326 330 340 345 350 350 357 3 3 1 3 4 7 10 20 21 20 19 15 11 6
254 255 254 253 249 250 244 243 249 252 259 276 294 303 311 316 326 330 324 330 335 340 339 344 348 350 352 353 359 4 4 6 7 14 18 19 11 10
255 253 255 253 253 252 252 257 263 261 259 271 286 297 306 305 315 321 317 328 337 340 316 338 349 348 348 350 350 351 359 356 357 355 5 13 8 18
256 253 253 250 256 256 255 260 267 260 267 271 283 292 293 308 315 315 321 330 331 336 324 315 335 337 337 340 337 339 344 350 348 354 358 4 2 12
254 252 252 251 255 256 253 256 257 253 261 270 276 282 285 294 306 307 313 320 330 321 326 324 335 337 334 329 324 334 334 342 355 358 354 357 355 1
252 250 248 250 247 249 243 254 255 258 257 263 268 260 278 285 289 298 307 320 333 317 326 318 334 332 338 346 337 316 317 333 355 353 350 343 347 353
249 247 246 247 244 246 248 251 242 254 254 267 265 269 274 281 291 289 292 294 281 304 318 309 329 330 338 329 328 309 268 160 354 344 340 339 340 338
247 244 250 249 244 245 249 249 252 252 254 262 268 275 277 282 283 291 295 295 292 298 311 287 322 328 331 336 30 32 69 342 333 332 326 327 329 328
244 238 246 250 248 243 244 248 253 258 255 267 268 270 272 279 286 293 287 281 280 297 304 259 318 333 327 321 313 263 334 324 329 330 330 322 323 321
236 238 241 248 250 240 239 241 246 258 260 270 271 265 266 276 290 274 277 264 271 293 257 289 311 346 327 302 290 290 304 315 314 316 315 315 314 309
224 239 248 241 237 238 234 239 245 259 263 263 268 265 268 277 290 274 271 261 251 240 265 296 267 292 273 288 292 299 303 304 310 313 312 313 308 304
233 243 244 247 235 233 234 241 245 244 259 258 264 268 272 286 271 270 268 272 271 274 284 280 266 265 264 279 287 294 298 298 303 293 304 296 298 298
237 244 240 242 234 231 232 238 241 250 255 260 255 264 278 279 271 280 279 286 287 283 282 281 278 282 276 266 274 286 301 300 293 291 289 294 296 300
235 227 227 232 228 229 233 236 240 252 256 256 262 271 270 262 267 279 283 292 296 296 299 299 290 283 277 273 270 278 279 265 285 288 291 297 300 298
223 225 213 216 225 226 229 240 248 247 253 255 254 258 261 252 274 277 282 292 279 288 298 303 304 296 280 276 274 269 270 272 271 285 286 285 291 293
209 208 209 214 214 216 227 231 242 247 251 253 250 251 253 256 273 276 281 275 269 279 291 302 306 310 311 298 257 256 271 265 277 285 280 272 283 285
219 212 214 217 212 215 221 233 240 248 247 241 249 244 252 267 269 271 269 270 269 283 290 297 295 284 280 279 286 273 259 274 277 276 272 262 263 278
213 203 213 219 209 217 231 239 247 248 238 241 238 243 258 262 268 266 266 265 276 287 286 289 283 272 248 263 279 286 273 267 270 272 276 274 271 281
215 203 216 218 220 233 239 245 248 243 236 237 233 244 254 259 264 269 268 279 285 287 285 282 286 293 289 288 262 272 285 283 267 260 273 276 281 282
212 215 225 226 234 237 241 246 245 231 230 225 230 243 252 261 265 268 268 272 275 275 274 285 295 296 286 268 271 279 286 293 293 272 261 259 260 266
209 213 226 235 242 242 242 240 237 233 234 227 233 248 253 258 266 272 279 279 276 276 274 280 287 286 275 273 275 278 279 280 283 282 280 283 265 263
Height
792 792 791 789 789 789 789 788 788 788 782 775 774 773 771 766 766 764 760 757 755 752 749 745 741 737 734 729 725 722 721 712 714 713 711 702 703 700
789 788 787 787 786 785 785 784 784 785 784 776 772 770 769 767 764 761 759 757 754 752 749 745 740 736 733 730 728 725 720 715 712 714 706 707 705 704
785 784 783 783 782 782 781 780 779 779 778 773 771 768 765 763 762 760 757 754 753 749 748 746 743 738 735 733 730 723 719 717 718 715 710 708 706 706
781 781 780 780 778 777 777 776 775 775 775 772 769 767 765 761 759 757 755 753 749 747 745 744 742 739 736 733 731 728 721 717 717 716 714 712 713 709
776 776 776 777 776 775 774 774 773 772 772 770 768 764 763 760 757 755 752 751 747 745 742 741 739 737 734 731 728 726 724 721 718 718 715 713 714 707
771 770 770 772 771 771 770 770 770 768 768 767 766 763 761 758 754 752 750 747 744 742 741 739 737 734 733 731 728 725 723 723 719 717 713 711 711 703
762 763 763 765 765 765 765 764 765 763 763 763 762 760 759 757 752 751 748 745 740 738 737 735 733 730 729 728 726 724 722 719 716 714 712 709 708 703
753 754 755 757 758 759 760 761 761 760 760 759 758 756 755 754 751 750 747 743 740 738 736 731 730 728 727 725 724 723 721 718 716 715 714 710 706 703
745 747 749 749 751 753 754 755 755 756 755 755 753 752 751 750 749 747 745 742 740 737 734 727 726 723 723 721 718 717 717 717 716 713 709 706 704 702
737 741 743 743 744 747 748 748 748 749 750 750 749 748 747 747 745 744 742 739 736 735 733 728 724 721 719 716 715 716 715 714 712 710 709 708 704 701
727 732 735 735 738 741 742 741 741 743 744 745 744 744 743 742 742 740 737 737 735 731 729 729 724 721 717 714 714 714 713 711 708 705 703 701 698 696
720 724 726 728 731 734 735 734 735 737 739 740 739 739 739 738 737 735 734 734 733 731 728 729 725 724 720 714 713 712 710 709 707 705 703 700 699 697
713 716 717 720 723 726 728 728 728 732 733 734 734 734 734 732 731 730 729 729 729 728 729 728 724 724 724 717 711 709 708 705 703 700 699 698 695 694
705 708 710 713 716 719 721 722 724 727 728 728 728 728 728 727 726 726 725 725 724 724 724 724 722 721 719 715 711 705 704 701 699 697 696 694 693 691
698 701 703 707 709 713 714 716 719 721 722 722 722 722 723 723 723 722 721 721 720 719 719 718 717 715 714 711 708 704 702 695 694 691 690 690 688 687
691 695 698 701 704 706 708 710 712 714 716 716 717 717 718 719 719 718 718 717 715 711 712 711 710 709 707 704 703 699 697 697 689 687 685 682 680 678
686 689 692 695 697 699 702 704 706 708 710 711 712 713 713 714 714 715 714 713 711 707 705 704 704 704 701 698 695 692 688 686 684 681 680 677 673 671
680 682 685 687 690 693 695 697 700 702 703 705 706 707 708 709 710 711 710 709 707 704 701 699 698 697 692 686 684 682 681 679 676 675 673 671 666 663
673 676 679 681 683 686 689 691 693 696 697 699 701 702 704 704 706 706 705 704 702 699 697 695 693 694 692 687 677 677 675 672 670 667 666 663 661 655
667 670 673 675 677 680 683 685 687 689 692 694 695 697 699 700 701 701 700 698 697 694 691 690 688 687 687 682 676 668 670 667 664 660 655 654 652 649
661 663 666 669 671 674 677 679 682 684 686 688 690 692 694 695 696 695 694 693 692 690 687 683 681 682 678 676 671 662 657 658 657 654 649 648 645 641
655 658 661 663 666 669 671 674 676 679 680 682 685 687 689 690 690 690 689 688 687 686 682 677 675 674 672 670 664 658 651 647 645 645 644 643 640 634
648 651 655 658 661 663 666 668 670 673 675 677 679 682 683 684 685 685 684 683 682 679 677 672 669 668 664 661 657 651 646 641 637 635 630 629 628 625